Wind_Speed
19 19 18 18 19 17 17 18 18 18 17 17 17 16 15 14 14 13 13 12 12 11 11 10 11 11 10 10 11 11 12 12 11 11 11 12 12 12 12 11 11 12 12 12 11 11 11 11 10
19 19 18 19 19 16 18 19 19 18 18 18 17 17 16 15 14 14 13 13 12 12 11 11 11 11 10 10 11 11 12 12 12 11 12 12 12 12 12 12 12 12 12 12 10 11 11 11 11
19 19 18 19 17 17 19 19 19 19 18 18 17 17 16 15 15 14 14 13 12 12 11 11 11 11 11 11 12 12 12 13 12 12 12 13 13 13 12 13 13 13 12 11 10 10 11 11 11
19 19 19 19 17 19 19 20 20 20 19 19 17 17 16 16 15 14 14 13 13 12 11 11 11 11 12 12 12 12 13 13 13 13 13 13 13 13 13 13 13 13 12 11 11 11 11 11 10
17 19 19 17 18 19 19 19 20 20 19 19 18 18 17 16 16 15 14 13 13 13 12 12 12 12 12 13 13 13 13 13 13 13 13 13 14 13 13 14 13 13 12 11 11 11 11 11 10
18 19 17 17 18 19 20 20 20 21 20 19 19 18 17 17 16 16 15 14 14 13 12 12 12 12 13 13 13 13 12 12 12 13 12 12 13 13 13 13 13 12 12 11 10 10 10 9 9
17 17 16 17 18 19 20 20 21 21 20 19 18 17 17 17 16 16 15 15 14 13 13 12 13 13 13 13 13 13 12 12 12 12 12 12 12 12 12 12 12 11 11 10 10 9 9 9 9
16 16 16 17 18 18 19 20 21 21 20 19 19 18 17 17 16 16 15 15 14 13 13 12 13 13 13 12 12 12 12 11 11 11 11 11 11 11 11 11 11 10 10 10 9 8 8 8 8
16 15 15 17 18 18 19 20 21 21 20 19 19 18 17 17 16 15 15 15 14 13 12 12 12 12 11 11 11 12 12 11 11 11 11 11 11 11 10 10 10 9 9 9 9 8 8 7 7
15 14 15 16 17 18 19 20 20 20 20 20 19 18 17 17 16 15 14 14 13 13 12 12 12 11 11 12 11 11 11 11 10 10 10 9 10 10 9 9 8 8 8 8 8 7 7 6 5
12 13 14 15 16 18 19 20 20 20 20 19 18 18 17 17 16 16 15 14 13 13 13 12 12 11 12 12 12 11 11 11 10 10 10 9 8 8 7 7 7 7 6 6 6 6 5 5 4
11 12 13 14 15 17 18 19 19 19 19 18 18 17 17 17 16 16 16 15 14 13 13 12 12 12 11 11 11 11 10 10 9 10 9 8 7 7 6 6 6 5 4 4 4 3 3 3 3
9 10 11 12 14 15 17 18 18 18 18 18 17 16 16 16 16 16 16 15 15 14 14 13 12 12 11 10 10 10 9 9 9 9 8 8 7 6 5 4 4 4 3 3 2 2 2 2 2
7 8 9 11 12 14 15 16 16 16 16 16 16 16 16 16 16 16 16 16 15 14 13 13 13 12 11 10 10 9 9 8 8 8 7 7 7 5 4 3 3 3 3 3 2 1 2 1 1
7 7 7 9 10 12 13 15 15 15 15 15 15 15 15 15 15 15 15 15 16 15 14 13 13 12 11 10 10 9 8 7 7 6 6 6 6 5 4 3 3 3 3 2 2 1 1 1 1
6 6 5 6 7 9 11 12 13 13 13 14 14 14 14 14 14 14 14 14 14 14 13 13 12 11 10 9 8 8 8 7 7 6 5 5 5 5 4 3 3 2 3 3 3 2 1 0 0
5 5 3 4 5 7 9 9 10 12 12 13 13 13 13 13 13 13 13 13 13 13 12 12 11 11 10 9 8 7 7 7 7 6 6 5 5 4 4 3 3 2 2 2 3 2 3 2 1
6 5 3 2 3 5 7 7 8 10 11 12 12 12 12 12 12 12 12 12 12 12 12 11 11 11 10 9 9 8 7 7 6 6 6 5 5 4 4 2 2 2 1 2 2 3 3 3 2
9 8 5 3 2 3 4 5 6 7 9 10 11 11 11 10 10 11 11 11 12 12 12 11 11 11 9 9 8 7 7 7 6 5 5 4 4 5 4 4 3 2 2 2 2 3 3 3 4
11 9 7 6 3 2 2 2 3 4 6 7 9 10 10 10 9 10 10 10 10 10 10 10 9 10 9 8 8 8 7 7 6 5 5 4 4 4 4 4 3 2 3 3 3 3 4 5 5
13 11 10 8 6 3 2 1 1 2 3 5 7 8 9 10 9 9 9 9 9 9 9 9 9 8 9 8 8 9 8 7 6 6 6 6 5 5 5 4 3 3 4 4 4 4 5 5 6
15 14 12 10 8 6 4 3 4 2 2 3 5 6 8 8 9 8 8 8 8 8 8 9 9 8 8 8 8 8 8 8 7 7 6 6 6 5 4 5 4 4 4 4 5 5 5 6 6
18 16 14 13 11 9 7 5 5 4 3 3 4 5 6 7 8 7 7 7 8 8 8 9 9 9 8 9 8 8 8 8 8 7 7 7 6 6 6 6 5 5 5 5 5 6 6 7 7
19 17 15 14 13 13 10 8 6 7 5 4 5 5 6 6 7 7 7 7 7 7 8 8 8 8 8 8 8 8 9 9 8 8 8 8 8 7 7 6 6 5 5 6 7 7 7 8 9
21 18 16 16 16 15 13 11 9 9 7 6 6 6 6 6 7 7 7 7 7 6 7 7 7 7 7 8 8 9 9 8 8 8 8 8 8 8 8 7 7 7 7 7 8 8 9 9 10
22 20 18 16 16 15 16 14 11 10 9 8 7 7 7 7 7 8 8 7 7 6 7 7 7 7 8 8 8 9 9 9 9 9 9 9 9 9 9 9 8 8 9 9 9 9 9 10 11
24 23 21 19 17 15 16 16 13 11 10 9 9 9 8 8 8 9 9 8 7 7 7 8 8 8 8 8 8 9 10 10 10 10 10 10 10 10 10 10 9 9 9 9 9 10 10 10 11
26 25 24 23 21 18 17 17 15 13 12 11 11 11 10 9 9 9 9 9 8 8 8 9 9 9 9 9 9 9 10 11 11 10 10 10 11 11 10 10 10 10 9 10 10 10 10 11 12
28 27 26 25 24 20 18 18 17 16 14 13 12 12 12 11 11 10 10 10 10 9 9 10 10 10 10 10 10 10 11 11 11 11 11 11 11 11 10 10 10 10 10 10 11 10 11 12 13
30 29 27 27 26 24 20 18 19 18 16 16 15 14 14 13 12 12 12 11 11 11 11 10 10 10 11 11 11 12 11 11 11 12 11 11 11 11 11 11 11 11 11 12 12 11 11 12 14
Wind_Direction
71 69 68 70 73 77 80 80 77 75 74 73 72 71 73 76 78 79 81 82 83 83 84 86 90 93 96 98 102 104 105 102 100 102 105 110 116 117 116 115 116 116 115 116 115 116 121 119 116
70 68 68 69 75 77 78 79 76 74 74 73 72 70 71 74 76 77 80 82 82 83 83 81 86 89 94 99 100 101 104 102 100 102 105 111 117 116 116 118 119 119 119 118 116 115 120 116 115
70 67 66 69 75 75 76 76 74 73 73 72 71 70 69 70 72 75 76 76 78 81 82 83 87 91 98 99 100 103 104 103 102 102 103 108 114 117 117 118 119 118 118 119 118 116 113 114 115
70 67 65 67 70 73 74 74 73 71 70 70 68 68 68 68 70 73 72 73 77 79 83 86 89 93 97 99 102 104 104 103 103 102 102 105 111 116 117 119 118 117 116 119 119 115 113 116 115
67 67 65 67 68 71 73 73 72 71 69 69 69 68 68 69 70 71 70 72 76 78 80 82 87 92 96 100 103 105 104 103 103 103 103 105 107 114 117 119 118 117 118 117 115 112 112 112 113
68 70 71 69 70 71 73 73 73 71 69 69 68 67 67 69 68 68 68 69 73 76 77 80 86 92 98 102 103 103 104 103 103 103 104 107 108 109 112 116 116 116 115 114 112 113 112 112 110
73 76 75 71 70 69 71 71 71 70 69 68 67 66 67 68 67 65 65 68 72 74 76 81 86 92 96 99 102 103 102 103 103 104 106 110 111 111 112 113 115 115 114 115 115 116 114 112 109
75 77 74 72 69 68 69 70 70 70 68 67 66 66 67 68 66 64 64 67 72 73 76 84 88 92 93 95 97 100 101 103 105 106 109 112 113 113 112 113 113 114 111 114 116 114 110 108 108
77 78 75 74 70 68 69 70 70 70 69 66 65 64 65 65 64 63 64 68 71 73 78 84 86 88 91 94 94 95 97 99 102 104 107 109 113 116 113 113 114 113 111 112 111 109 107 106 109
81 84 79 76 72 69 68 68 68 68 67 65 64 63 63 64 63 60 62 65 68 71 75 80 85 84 88 90 90 93 95 96 98 100 102 104 106 108 109 108 112 116 115 114 114 113 113 110 109
84 86 79 74 72 71 68 67 67 66 65 64 64 63 63 64 63 60 61 64 67 69 72 77 84 83 86 88 88 91 92 94 98 102 101 102 107 108 109 109 110 117 122 122 120 118 118 117 115
88 84 79 75 71 71 69 67 66 66 64 64 63 63 63 62 62 61 60 62 64 67 71 74 77 80 82 86 86 86 89 89 94 98 101 100 105 108 108 110 111 121 128 133 135 132 131 129 128
94 85 81 77 73 71 70 67 66 65 63 63 62 61 60 60 60 60 59 58 60 64 68 71 74 78 81 83 84 84 81 84 93 91 92 89 98 102 106 108 111 112 113 128 133 143 166 171 157
102 92 84 80 75 73 70 67 64 62 61 60 59 59 59 59 59 59 57 56 57 61 65 69 72 75 79 79 79 80 82 89 94 90 85 82 88 92 100 106 103 105 96 102 123 142 173 170 181
116 102 88 83 78 76 71 65 62 59 58 57 56 56 56 56 56 55 54 54 55 58 63 67 68 71 76 77 76 78 80 85 85 82 80 74 76 79 96 101 94 96 92 80 75 97 187 200 180
128 112 93 87 82 76 70 63 61 59 57 55 53 51 50 50 52 53 53 53 53 55 60 61 63 65 69 70 72 71 73 79 80 76 66 66 69 72 85 89 79 75 75 68 61 47 24 265 193
146 136 124 100 89 79 75 69 60 58 55 53 49 45 46 45 49 51 51 51 51 52 56 57 58 58 61 61 64 65 67 66 62 59 57 55 50 49 56 66 66 68 65 45 36 21 9 11 357
186 173 157 130 105 83 78 72 60 57 54 50 47 43 41 41 44 46 48 49 48 50 54 56 55 55 57 56 57 59 60 58 46 46 51 45 39 39 43 43 47 43 36 33 20 3 357 1 346
201 194 196 194 167 102 83 73 61 56 53 49 44 42 38 36 39 40 45 46 47 48 49 50 52 50 50 51 52 51 50 50 50 49 45 38 26 24 25 20 22 16 18 5 356 354 339 333 335
206 205 211 223 214 174 113 75 56 52 48 41 36 36 34 32 33 34 41 43 45 45 42 41 44 43 43 43 45 47 41 39 40 37 30 17 11 9 7 359 0 338 329 319 321 323 330 331 328
213 211 216 228 223 215 208 328 7 34 29 26 25 27 28 26 27 29 33 38 40 41 38 39 40 41 42 41 40 38 34 30 25 20 15 5 1 3 353 343 338 319 318 318 321 315 319 329 329
218 217 220 226 224 234 225 248 292 307 337 358 9 13 16 16 16 22 29 30 35 37 36 36 34 35 35 36 35 34 30 24 17 9 6 4 360 351 344 342 332 315 309 312 316 315 316 319 318
219 220 221 225 226 231 239 231 265 276 295 322 340 348 355 2 8 14 20 23 26 30 32 34 29 27 26 26 25 25 21 17 11 5 358 353 349 348 341 338 330 318 309 309 315 315 314 316 312
219 222 225 227 232 237 239 237 247 264 274 293 311 321 331 343 350 360 5 9 12 14 17 20 22 19 16 15 14 12 9 8 5 1 356 351 350 347 345 344 336 321 310 310 314 316 312 309 307
220 223 229 232 235 240 244 243 242 251 260 273 288 300 309 323 331 343 349 352 358 0 1 5 10 12 10 6 3 1 360 360 358 355 353 349 347 348 348 341 333 323 314 313 312 311 307 307 306
224 225 226 229 236 243 248 247 247 249 254 261 272 282 289 299 311 320 329 333 337 340 344 350 355 358 359 357 355 355 354 353 350 347 346 346 346 345 341 335 329 323 317 311 309 309 308 311 311
226 225 227 232 235 238 250 252 249 250 249 251 260 271 280 287 293 302 311 317 322 326 328 334 340 341 342 343 344 344 346 346 344 342 341 338 339 340 338 335 330 325 320 316 311 309 310 312 314
226 227 228 231 235 241 248 254 252 250 249 249 253 262 272 281 285 292 298 304 309 314 316 319 324 328 329 329 332 336 338 338 339 339 336 334 333 333 332 330 327 324 323 319 315 313 313 315 313
228 229 230 234 237 240 246 254 255 251 247 249 253 256 265 273 275 282 286 291 297 304 309 313 315 319 320 320 322 326 331 335 336 335 334 333 330 330 329 329 328 327 325 323 319 315 313 314 315
231 232 233 235 239 239 240 251 255 251 248 249 251 255 260 265 266 272 279 283 289 295 300 305 309 313 316 315 315 317 321 327 330 332 333 333 329 326 325 326 325 324 321 320 322 320 319 320 318
Height
5899 5898 5897 5897 5897 5896 5893 5892 5890 5889 5888 5886 5884 5883 5882 5882 5882 5882 5879 5877 5877 5876 5875 5875 5874 5874 5874 5874 5874 5874 5874 5874 5874 5874 5874 5874 5874 5875 5876 5877 5877 5878 5879 5880 5881 5881 5881 5882 5883
5902 5901 5901 5900 5900 5899 5897 5894 5893 5891 5890 5888 5886 5886 5884 5884 5883 5881 5880 5879 5879 5878 5877 5876 5876 5876 5876 5876 5876 5875 5875 5876 5875 5875 5875 5875 5876 5876 5877 5878 5879 5879 5880 5881 5882 5882 5883 5883 5884
5904 5904 5905 5904 5903 5901 5899 5897 5895 5893 5892 5890 5889 5888 5887 5886 5885 5883 5882 5881 5881 5880 5879 5878 5878 5878 5877 5877 5877 5878 5877 5878 5878 5877 5877 5877 5878 5879 5879 5880 5880 5881 5882 5883 5883 5884 5884 5885 5886
5908 5908 5908 5907 5905 5903 5901 5899 5897 5896 5894 5892 5891 5890 5889 5888 5887 5886 5884 5883 5882 5882 5881 5881 5880 5880 5879 5879 5879 5879 5880 5880 5880 5880 5880 5880 5880 5881 5881 5881 5882 5883 5884 5884 5885 5885 5886 5887 5887
5911 5911 5912 5910 5908 5906 5904 5902 5900 5898 5896 5895 5894 5893 5891 5890 5889 5888 5887 5886 5885 5884 5883 5882 5882 5882 5881 5881 5881 5881 5881 5882 5882 5882 5882 5882 5882 5883 5883 5883 5884 5885 5885 5886 5887 5887 5888 5888 5889
5915 5915 5916 5913 5911 5909 5907 5904 5902 5901 5899 5898 5897 5896 5894 5893 5892 5890 5889 5888 5887 5886 5885 5885 5884 5884 5884 5883 5883 5883 5883 5884 5884 5884 5884 5884 5885 5885 5886 5886 5886 5887 5887 5888 5889 5889 5890 5890 5891
5919 5919 5918 5916 5914 5912 5910 5907 5905 5903 5902 5901 5899 5898 5896 5895 5894 5893 5892 5890 5890 5889 5888 5887 5886 5886 5886 5886 5885 5885 5886 5886 5886 5886 5886 5887 5887 5887 5888 5888 5889 5889 5890 5890 5890 5891 5891 5892 5892
5921 5922 5920 5918 5917 5915 5913 5910 5908 5906 5905 5904 5902 5901 5899 5898 5897 5896 5894 5893 5892 5891 5890 5889 5889 5888 5888 5888 5888 5887 5888 5888 5888 5888 5888 5888 5889 5889 5890 5890 5891 5891 5891 5892 5892 5893 5893 5893 5893
5923 5925 5923 5921 5919 5917 5915 5913 5911 5909 5907 5906 5905 5904 5902 5901 5899 5898 5897 5896 5895 5894 5893 5892 5891 5891 5890 5890 5890 5890 5890 5890 5890 5890 5890 5890 5891 5891 5892 5892 5892 5893 5893 5893 5894 5894 5894 5894 5894
5926 5927 5925 5923 5922 5920 5917 5916 5914 5912 5911 5909 5908 5906 5905 5903 5902 5901 5900 5899 5898 5897 5895 5894 5893 5893 5892 5892 5892 5892 5892 5892 5892 5892 5892 5892 5893 5893 5894 5894 5894 5895 5895 5895 5895 5895 5895 5895 5895
5928 5928 5927 5925 5923 5922 5920 5918 5917 5915 5914 5913 5911 5909 5908 5906 5905 5904 5903 5901 5900 5899 5898 5896 5896 5895 5895 5894 5894 5894 5894 5894 5894 5894 5894 5894 5894 5895 5895 5895 5895 5896 5896 5896 5896 5896 5896 5896 5896
5930 5929 5928 5927 5926 5924 5923 5921 5920 5918 5917 5916 5914 5912 5911 5909 5908 5907 5906 5904 5902 5901 5900 5899 5898 5897 5897 5896 5896 5896 5896 5896 5896 5896 5896 5896 5896 5896 5896 5896 5896 5896 5896 5896 5896 5897 5897 5897 5897
5932 5931 5930 5929 5928 5927 5925 5924 5923 5921 5920 5918 5917 5916 5914 5912 5911 5910 5908 5907 5905 5903 5902 5901 5900 5900 5899 5898 5898 5898 5898 5897 5897 5897 5897 5897 5897 5897 5897 5897 5897 5897 5897 5897 5897 5897 5897 5897 5897
5933 5932 5932 5931 5930 5929 5928 5927 5925 5924 5923 5921 5920 5919 5917 5916 5914 5913 5911 5910 5908 5906 5905 5904 5903 5902 5901 5901 5900 5900 5899 5899 5898 5898 5898 5898 5897 5898 5898 5898 5897 5897 5897 5897 5897 5897 5897 5897 5897
5933 5934 5934 5933 5932 5931 5930 5929 5928 5926 5925 5924 5923 5921 5920 5918 5917 5916 5914 5912 5911 5909 5907 5906 5905 5904 5903 5903 5902 5901 5901 5900 5899 5899 5899 5899 5898 5898 5898 5898 5898 5898 5898 5897 5897 5897 5897 5896 5896
5934 5936 5936 5935 5934 5933 5934 5933 5931 5929 5927 5926 5925 5924 5922 5921 5919 5918 5916 5915 5913 5911 5910 5909 5907 5906 5905 5904 5904 5903 5902 5902 5901 5900 5900 5900 5899 5899 5898 5898 5898 5898 5898 5898 5897 5897 5896 5896 5896
5935 5937 5938 5937 5936 5935 5935 5934 5933 5931 5929 5928 5927 5926 5925 5923 5922 5920 5918 5917 5915 5914 5912 5911 5909 5908 5907 5906 5905 5905 5904 5903 5903 5902 5901 5901 5900 5899 5899 5899 5898 5898 5898 5898 5897 5897 5896 5895 5895
5936 5938 5938 5937 5937 5936 5936 5936 5934 5933 5931 5930 5929 5928 5927 5926 5924 5922 5920 5919 5917 5916 5914 5913 5911 5910 5909 5908 5907 5906 5905 5905 5904 5903 5902 5902 5901 5900 5899 5899 5898 5898 5898 5898 5897 5897 5896 5896 5895
5935 5936 5937 5937 5937 5937 5937 5936 5936 5934 5933 5932 5931 5930 5929 5927 5926 5924 5923 5921 5919 5918 5916 5915 5913 5912 5911 5910 5909 5908 5907 5906 5905 5904 5903 5902 5902 5901 5900 5899 5899 5898 5898 5897 5897 5896 5896 5895 5895
5933 5935 5936 5936 5937 5937 5937 5937 5937 5936 5935 5934 5933 5932 5930 5929 5928 5926 5924 5923 5921 5920 5918 5917 5915 5914 5912 5911 5910 5909 5908 5907 5906 5905 5904 5903 5902 5901 5900 5899 5898 5898 5898 5897 5897 5896 5895 5895 5894
5931 5933 5935 5935 5936 5937 5938 5938 5937 5937 5936 5935 5934 5933 5932 5931 5929 5928 5926 5925 5923 5922 5920 5919 5917 5916 5914 5913 5912 5910 5909 5908 5907 5906 5904 5903 5902 5901 5900 5899 5898 5898 5897 5897 5896 5895 5895 5894 5893
5929 5931 5933 5934 5935 5937 5937 5940 5938 5937 5936 5936 5935 5934 5933 5932 5931 5929 5928 5926 5925 5923 5922 5920 5919 5917 5916 5914 5913 5911 5910 5909 5908 5906 5905 5903 5902 5901 5899 5899 5898 5897 5896 5896 5895 5894 5894 5893 5892
5926 5928 5930 5932 5934 5936 5936 5938 5939 5936 5936 5936 5935 5934 5933 5932 5931 5930 5929 5927 5926 5925 5923 5921 5920 5919 5917 5916 5914 5912 5911 5909 5908 5906 5905 5903 5902 5900 5899 5898 5897 5896 5895 5895 5894 5893 5892 5892 5891
5922 5925 5927 5929 5932 5934 5935 5936 5938 5936 5936 5936 5935 5934 5933 5932 5931 5930 5929 5928 5927 5925 5924 5922 5921 5919 5918 5916 5915 5913 5911 5909 5908 5906 5905 5903 5901 5900 5898 5897 5896 5895 5894 5893 5892 5891 5891 5890 5889
5919 5923 5926 5928 5930 5932 5933 5933 5936 5934 5934 5934 5934 5934 5933 5932 5931 5930 5929 5928 5927 5926 5924 5923 5921 5920 5918 5917 5915 5913 5912 5910 5908 5906 5904 5903 5901 5899 5898 5896 5895 5894 5893 5892 5891 5890 5889 5887 5886
5915 5919 5924 5927 5929 5930 5929 5930 5933 5932 5932 5932 5932 5932 5932 5931 5930 5929 5929 5927 5926 5925 5924 5923 5921 5920 5918 5917 5915 5913 5911 5909 5908 5906 5904 5902 5900 5898 5897 5895 5894 5892 5891 5890 5889 5888 5887 5885 5884
5910 5914 5918 5922 5924 5926 5926 5927 5928 5929 5930 5930 5930 5930 5930 5930 5929 5928 5927 5926 5925 5925 5924 5922 5921 5919 5918 5916 5915 5913 5911 5909 5907 5905 5903 5901 5899 5897 5896 5894 5893 5891 5890 5888 5887 5886 5885 5883 5882
5906 5909 5913 5916 5919 5922 5924 5924 5926 5926 5927 5928 5928 5928 5928 5928 5927 5927 5926 5925 5924 5923 5922 5921 5920 5918 5917 5915 5914 5912 5910 5908 5905 5904 5902 5900 5898 5896 5895 5893 5891 5890 5888 5887 5885 5884 5883 5881 5879
5900 5904 5907 5911 5914 5918 5921 5923 5921 5922 5923 5924 5925 5925 5925 5925 5925 5925 5924 5923 5923 5922 5921 5920 5918 5917 5915 5914 5912 5911 5909 5907 5905 5903 5901 5899 5897 5895 5893 5892 5890 5888 5887 5885 5884 5882 5881 5879 5877
5894 5898 5902 5905 5908 5911 5915 5920 5916 5917 5919 5920 5921 5921 5922 5922 5922 5922 5922 5921 5920 5920 5919 5918 5916 5915 5913 5912 5910 5909 5907 5905 5903 5901 5899 5897 5895 5893 5892 5890 5889 5887 5885 5884 5882 5880 5878 5876 5874